[[{"header":{"parameterUnit":"m.s-1","parameterCategory":1,"la1":30.2991,"la2":30.254,"lo1":-89.0895,"lo2":-89.0444,"dy":0.0017,"dx":0.0017,"nx":28,"ny":28,"refTime":"2025-08-24T03:00:00:Z","depth":0,"parameterNumber":2,"parameterNumberName":"U-component_of_WINDS"},"data":[0,0,0,0,0,0,0,0,0,0,0,0,0,0,0,0,0,0,0,0,0,0,0,0,0,0,0,0,0,0,0,0,0,0,0,0,0,0,0,0,0,0,0,0,0,0,0,0,0,0,0,0,0,0,0,0,0,0,2.9364,2.9364,0,2.9404,2.9404,2.9405,2.9329,2.9326,2.9324,2.9321,2.9366,2.9369,2.9373,0,0,0,0,0,0,0,0,0,0,0,0,0,2.9222,2.9225,2.9364,2.9364,2.9365,2.9404,2.9404,2.9405,2.9329,2.9326,2.9323,2.932,2.9365,2.9369,2.9373,0,0,0,0,0,0,0,0,0,0,0,0,0,2.9275,2.9226,2.9364,2.9331,2.9329,2.9404,2.9404,2.9405,2.933,2.9326,2.9322,2.9319,2.9363,2.9368,2.9374,2.9483,0,0,2.939,2.9392,0,0,0,0,0,0,0,0,2.9272,2.9281,2.9336,2.9334,2.9331,2.9357,2.9371,2.9431,2.9331,2.933,2.9321,2.9317,2.9366,2.9371,2.9387,2.9485,2.9487,2.939,2.9394,2.9396,2.9397,0,0,0,0,0,0,0,2.9269,2.9278,2.938,2.9337,2.9334,2.9315,2.9319,2.9382,2.9369,2.9329,2.9324,2.933,2.9364,2.9382,2.9388,2.9487,2.939,2.9395,2.9398,2.94,2.9672,2.9676,0,0,0,0,0,0,2.9269,2.9276,2.9378,2.9381,2.9292,2.9321,2.9325,2.9353,2.9368,2.9367,2.9333,2.9326,2.9375,2.9381,2.9389,2.9514,2.9396,2.9401,2.9404,2.9668,2.9673,2.9678,0,0,0,0,0,0,2.9266,2.9279,2.9377,2.9327,2.9338,2.9327,2.936,2.9356,2.9373,2.937,2.9368,2.9353,2.9372,2.9381,2.9459,2.9515,2.9403,2.9408,2.9664,2.967,2.9675,2.9768,0,0,0,0,0,0,2.9262,2.9278,2.9319,2.9328,2.9341,2.9446,2.9363,2.9359,2.9382,2.9374,2.9389,2.9388,2.937,2.9451,2.9464,2.952,2.9412,2.9658,2.9666,2.9674,2.976,2.9777,2.9791,0,0,0,0,0,2.9257,2.9346,2.9322,2.9335,2.9392,2.9449,2.9457,2.9433,2.9387,2.9428,2.9426,2.9387,2.9507,2.946,2.9474,2.9532,2.9655,2.9664,2.9673,2.9753,2.9773,2.9791,0,0,0,0,0,0,2.9346,2.9346,2.932,2.9413,2.9432,2.9436,2.9488,2.9456,2.9489,2.9479,2.945,2.9454,2.9536,2.9543,2.949,2.9637,2.9573,2.9585,2.9629,2.9649,2.9664,2.966,2.9417,0,0,0,0,0,2.9376,2.9421,2.942,2.9502,2.9513,2.9499,2.9523,2.9503,2.9521,2.9529,2.9532,2.9552,2.9593,2.9622,2.966,2.9761,2.9762,2.9808,2.9823,2.9836,2.9847,2.9897,2.9916,2.9707,2.9707,2.9707,0,0,2.9439,2.9445,2.9476,2.952,2.9532,2.9579,2.9506,2.9561,2.9595,2.9538,2.9609,2.9613,2.9633,2.9721,2.9761,2.9729,2.9904,2.9848,2.9858,2.9861,2.9908,2.9928,2.9945,2.9714,2.9712,2.9711,0,0,2.9577,2.9587,2.9655,2.9668,2.9685,2.9675,2.9692,2.9701,2.97,2.9771,2.9728,2.9769,2.9843,2.9857,2.9875,3.0016,2.9981,3.003,3.0109,3.0159,3.0175,3.019,3.0237,3.0255,3.004,3.0041,3.0041,0,2.9653,2.9723,2.9695,2.9751,2.9771,2.9719,2.9787,2.9801,2.9831,2.9846,2.981,2.9898,2.9908,2.9997,3.0031,3.0048,3.0065,3.0027,3.0175,3.0189,3.0202,3.0247,3.0265,3.0046,3.0045,3.0045,3.0044,0,2.9814,2.9863,2.9916,2.9943,2.9969,3.0032,3.0013,3.0043,3.002,3.0013,3.0086,3.0096,3.0133,3.0154,3.0134,3.024,3.0219,3.018,3.0115,3.0228,3.0269,3.0287,3.0054,3.0052,3.005,3.0049,0,0,3.001,3.0019,3.0038,3.0049,3.0063,3.0101,3.016,3.0195,3.022,3.0243,3.029,3.0352,3.0314,3.0334,3.0315,3.0358,3.0465,3.0313,3.0313,3.0339,3.058,3.0607,3.0628,3.0443,3.0446,3.0449,3.0577,0,3.0145,3.0244,3.022,3.0319,3.0362,3.0312,3.0363,3.0377,3.0373,3.0409,3.0404,3.0446,3.0395,3.0406,3.0447,3.0444,3.0513,3.0435,3.0485,3.0488,3.0479,3.065,3.068,3.0801,3.0593,3.0596,3.0598,0,3.0315,3.0341,3.0444,3.0448,3.0465,3.0512,3.054,3.0576,3.059,3.0583,3.0604,3.0575,3.0632,3.0568,3.0646,3.0593,3.0613,3.0614,3.0618,3.062,3.0548,3.0654,3.0839,3.0856,3.0624,3.0622,3.062,0,3.0444,3.0505,3.0573,3.0584,3.0592,3.0624,3.063,3.064,3.0662,3.0687,3.0701,3.0734,3.0751,3.0777,3.0757,3.0713,3.0837,3.0772,3.0832,3.0832,3.0859,3.0857,3.1047,3.0876,3.0876,3.0875,3.0875,0,3.0596,3.066,3.063,3.0672,3.0742,3.0713,3.0782,3.0782,3.0791,3.0832,3.0792,3.0831,3.0803,3.084,3.0826,3.089,3.09,3.0895,3.0889,3.0897,3.0897,3.0908,3.0898,3.088,3.0879,3.0878,3.0877,0,3.0751,3.0734,3.0804,3.0804,3.0806,3.0857,3.0857,3.0895,3.0887,3.0938,3.0949,3.0935,3.0976,3.0959,3.1003,3.0993,3.1075,3.106,3.1069,3.1064,3.1124,3.1117,3.1325,3.1349,3.1166,3.1167,3.1169,0,3.0848,3.0895,3.0899,3.0922,3.0929,3.0968,3.0989,3.0962,3.0985,3.1004,3.104,3.1076,3.1104,3.1171,3.1165,3.1197,3.1182,3.1252,3.1186,3.1191,3.1179,3.1175,3.1179,3.1265,3.1267,3.1269,3.127,0,3.1021,3.1009,3.104,3.1067,3.1092,3.1113,3.1131,3.1152,3.1126,3.1154,3.1193,3.1215,3.1257,3.1293,3.1321,3.1327,3.1294,3.1291,3.1306,3.1313,3.1314,3.1311,3.1102,3.1286,3.1284,3.1283,3.1282,3.1282,3.1148,3.1186,3.1194,3.1229,3.1238,3.1255,3.1289,3.1284,3.1316,3.1347,3.1329,3.1375,3.1386,3.142,3.1429,3.1464,3.1436,3.1459,3.1464,3.147,3.1476,3.1311,3.147,3.1469,3.1469,3.1468,3.1468,0,3.1315,3.1317,3.135,3.1373,3.14,3.1366,3.1382,3.1407,3.1447,3.146,3.1487,3.1531,3.1565,3.1561,3.1592,3.1621,3.1606,3.1629,3.1626,3.1627,3.15,3.1483,3.164,3.164,3.164,3.164,3.164,3.164,3.1406,3.1468,3.1457,3.1522,3.1524,3.1566,3.1579,3.1593,3.1602,3.1652,3.168,3.1676,3.1682,3.1712,3.1741,3.1739,3.1751,3.178,3.1772,3.1654,3.1636,3.162,3.1603,3.1783,3.1784,3.1895,3.1896,3.1897]},{"header":{"parameterUnit":"m.s-1","parameterCategory":1,"la1":30.2991,"la2":30.254,"lo1":-89.0895,"lo2":-89.0444,"dy":0.0017,"dx":0.0017,"nx":28,"ny":28,"refTime":"2025-08-24T03:00:00:Z","depth":0,"parameterNumber":3,"parameterNumberName":"V-component_of_WINDS"},"data":[0,0,0,0,0,0,0,0,0,0,0,0,0,0,0,0,0,0,0,0,0,0,0,0,0,0,0,0,0,0,0,0,0,0,0,0,0,0,0,0,0,0,0,0,0,0,0,0,0,0,0,0,0,0,0,0,0,0,1.5153,1.5155,0,1.5323,1.5325,1.5327,1.5371,1.537,1.5369,1.5369,1.5538,1.5543,1.5548,0,0,0,0,0,0,0,0,0,0,0,0,0,1.4861,1.4867,1.5153,1.5155,1.5157,1.5322,1.5325,1.5327,1.5372,1.537,1.5369,1.5368,1.5536,1.5542,1.5549,0,0,0,0,0,0,0,0,0,0,0,0,0,1.5005,1.4868,1.5152,1.5199,1.5205,1.5322,1.5325,1.5328,1.5372,1.537,1.5369,1.5367,1.5534,1.5542,1.555,1.563,0,0,1.5575,1.5578,0,0,0,0,0,0,0,0,1.4997,1.5016,1.519,1.5196,1.5203,1.5325,1.5284,1.5429,1.5372,1.5309,1.5368,1.5367,1.5468,1.5481,1.5516,1.5638,1.5645,1.5575,1.558,1.5584,1.5586,0,0,0,0,0,0,0,1.4987,1.5009,1.522,1.5193,1.5201,1.521,1.5229,1.5312,1.5394,1.5314,1.5318,1.5337,1.5471,1.5508,1.552,1.5648,1.5575,1.5582,1.5587,1.5591,1.5842,1.5844,0,0,0,0,0,0,1.497,1.5,1.5215,1.5225,1.5094,1.5216,1.5238,1.5287,1.5394,1.5408,1.5338,1.5339,1.5495,1.5511,1.5526,1.5627,1.5584,1.5591,1.5596,1.584,1.5843,1.5845,0,0,0,0,0,0,1.4963,1.4988,1.5208,1.5114,1.5142,1.5223,1.5278,1.5291,1.5329,1.5412,1.5427,1.5362,1.5494,1.5515,1.5604,1.5634,1.5595,1.5602,1.5838,1.5841,1.5844,1.5829,0,0,0,0,0,0,1.4955,1.4986,1.5019,1.5114,1.5147,1.5284,1.528,1.5296,1.5343,1.5345,1.5438,1.5452,1.5495,1.5592,1.5612,1.5644,1.5609,1.5836,1.584,1.5843,1.5827,1.5831,1.5834,0,0,0,0,0,1.4944,1.5007,1.502,1.5046,1.5191,1.5286,1.5305,1.5354,1.5345,1.5378,1.5431,1.5449,1.5627,1.56,1.5624,1.5659,1.5834,1.5839,1.5843,1.5826,1.583,1.5834,0,0,0,0,0,0,1.4912,1.5021,1.5036,1.5133,1.52,1.5293,1.5337,1.5358,1.5428,1.5426,1.5483,1.5504,1.5588,1.5632,1.5601,1.5741,1.573,1.5739,1.571,1.5715,1.5718,1.5706,1.5616,0,0,0,0,0,1.4917,1.4987,1.5077,1.5153,1.5186,1.5255,1.5299,1.5331,1.5402,1.5431,1.549,1.5557,1.5628,1.5674,1.5744,1.5833,1.5853,1.5869,1.5872,1.5874,1.5881,1.593,1.5938,1.5858,1.5858,1.5858,0,0,1.4926,1.4994,1.5035,1.5149,1.5205,1.5274,1.5279,1.5353,1.5404,1.5441,1.553,1.5575,1.5653,1.5743,1.5785,1.5782,1.5908,1.5879,1.5881,1.5887,1.5935,1.5943,1.5949,1.5861,1.586,1.586,0,0,1.498,1.5038,1.5108,1.5164,1.5248,1.5294,1.531,1.54,1.5432,1.5522,1.5551,1.5611,1.5733,1.5787,1.583,1.5901,1.5919,1.5922,1.594,1.5987,1.5993,1.5999,1.6023,1.6031,1.5928,1.5928,1.5928,0,1.4981,1.5089,1.5141,1.5213,1.5261,1.5299,1.5368,1.5419,1.5521,1.5553,1.5548,1.57,1.5755,1.5857,1.5874,1.5908,1.5927,1.5912,1.5988,1.5995,1.6001,1.6025,1.6034,1.5928,1.5928,1.5928,1.5928,0,1.5085,1.5159,1.5204,1.5303,1.5357,1.5427,1.5488,1.5535,1.5561,1.5606,1.5695,1.5763,1.5846,1.5872,1.5899,1.5977,1.5973,1.5977,1.5968,1.6007,1.6031,1.604,1.5928,1.5928,1.5928,1.5928,0,0,1.5125,1.5251,1.5266,1.5311,1.5406,1.5463,1.5534,1.5617,1.5656,1.5724,1.5784,1.5884,1.5889,1.5938,1.597,1.6011,1.6062,1.6011,1.6013,1.6017,1.615,1.6146,1.6156,1.6074,1.6076,1.6077,1.6144,0,1.5189,1.532,1.5367,1.5473,1.5541,1.5576,1.5637,1.5701,1.5744,1.5806,1.5853,1.5923,1.5924,1.5953,1.5996,1.6047,1.6089,1.6042,1.6128,1.613,1.6108,1.6169,1.6166,1.6225,1.6153,1.6155,1.6156,0,1.5283,1.5354,1.5466,1.5552,1.5582,1.5637,1.5715,1.5775,1.5846,1.5874,1.5928,1.5958,1.603,1.6016,1.6116,1.6083,1.612,1.615,1.6153,1.6163,1.6146,1.618,1.6246,1.6254,1.6171,1.617,1.6169,0,1.53,1.5423,1.5506,1.5543,1.5645,1.5682,1.5726,1.5796,1.5842,1.591,1.594,1.6015,1.6056,1.6112,1.6159,1.6144,1.6254,1.6244,1.6278,1.6277,1.6301,1.6298,1.6373,1.6324,1.6324,1.6324,1.6324,0,1.5368,1.5435,1.5515,1.5566,1.5642,1.5695,1.5768,1.5813,1.5875,1.5934,1.5968,1.6022,1.6082,1.6142,1.618,1.6256,1.6274,1.6297,1.6307,1.6295,1.6292,1.632,1.6317,1.6326,1.6326,1.6325,1.6325,0,1.54,1.5457,1.5549,1.5638,1.5661,1.5713,1.5787,1.5837,1.5881,1.5955,1.5975,1.6043,1.6116,1.6169,1.6264,1.6289,1.637,1.6379,1.6346,1.6351,1.6382,1.6379,1.6478,1.6493,1.6434,1.6434,1.6435,0,1.544,1.5493,1.5586,1.5629,1.5673,1.5741,1.5788,1.5841,1.5888,1.5973,1.6011,1.6087,1.6151,1.6266,1.6323,1.6394,1.6405,1.6435,1.6416,1.6402,1.6405,1.6402,1.6406,1.6438,1.6438,1.6438,1.6439,0,1.5504,1.5529,1.5597,1.5674,1.5729,1.5792,1.5855,1.5887,1.5951,1.6002,1.6078,1.6127,1.6224,1.6298,1.6375,1.6417,1.6438,1.6444,1.6456,1.6444,1.6423,1.6434,1.6354,1.6442,1.6441,1.6441,1.6441,1.6441,1.5541,1.5589,1.5662,1.5736,1.5789,1.5847,1.5897,1.5947,1.6012,1.6096,1.6122,1.6201,1.6268,1.6374,1.6417,1.6478,1.6476,1.6493,1.6498,1.6501,1.65,1.6413,1.6492,1.6492,1.6492,1.6492,1.6492,0,1.5606,1.5655,1.5722,1.581,1.5867,1.5882,1.5952,1.5999,1.6068,1.613,1.6192,1.6278,1.635,1.6411,1.6485,1.6521,1.6532,1.6539,1.6536,1.6546,1.6498,1.648,1.6528,1.6528,1.6528,1.6528,1.6528,1.6528,1.5647,1.5729,1.5762,1.5869,1.5917,1.5995,1.6034,1.6086,1.6136,1.6231,1.6292,1.6332,1.6393,1.6471,1.6536,1.6552,1.6577,1.6581,1.6599,1.6553,1.6549,1.6545,1.6529,1.6586,1.6586,1.6642,1.6643,1.6643]}]]